Regional Weather Roundup
Issued by NWS

Home | Current Version | Previous Version | Text Only | Print | Product List | Glossary Off
Versions: 1 2 3 4 5 6 7 8 9 10 11 12 13 14 15 16 17 18 19 20 21 22 23 24 25 26 27 28 29 30 31 32 33 34 35 36 37 38 39 40 41 42 43 44 45 46 47 48 49 50

000
ASUS45 KBOI 190710
RWRID

IDAHO REGIONAL WEATHER ROUNDUP
NATIONAL WEATHER SERVICE BOISE ID
100 AM MDT THU OCT 19 2017

NOTE: "FAIR" INDICATES FEW OR NO CLOUDS BELOW 12000 FEET
WITH NO SIGNIFICANT WEATHER AND/OR OBSTRUCTIONS TO VISIBILITY

IDZ012-014-190800-
SOUTHWEST IDAHO


CITY           SKY/WX    TMP DP  RH WIND       PRES   REMARKS
BOISE          CLEAR     55  29  36 SE10      29.87F
CALDWELL       CLEAR     49  30  48 SE5       29.86F
MOUNTAIN HOME  CLEAR     49  26  41 SE14      29.90F
$$

IDZ016-017-190800-
SOUTHCENTRAL IDAHO


CITY           SKY/WX    TMP DP  RH WIND       PRES   REMARKS
BURLEY         CLEAR     50  20  30 S8        29.97F
JEROME         CLEAR     47  29  49 NE13      29.98S
TWIN FALLS     CLEAR     55  17  22 S13       29.96F
$$

IDZ019>023-190800-
SOUTHEAST IDAHO


CITY           SKY/WX    TMP DP  RH WIND       PRES   REMARKS
IDAHO FALLS    CLOUDY    36  29  75 CALM      30.04F
POCATELLO      CLEAR     47  25  42 CALM      30.02F
REXBURG        CLOUDY    37  27  67 N7        30.05F WCI  32
$$

IDZ006-010-011-018-031-032-190800-
CENTRAL IDAHO MOUNTAINS


CITY           SKY/WX    TMP DP  RH WIND       PRES   REMARKS
MCCALL         CLEAR     35  30  82 CALM      29.92F
HAILEY         CLEAR     41  28  60 NW10      30.08F
STANLEY          N/A     39  22  50 SE8       30.05F WCI  33
SALMON         CLOUDY    38  29  70 CALM      29.93F
CHALLIS        CLEAR     41  25  53 CALM      29.99F
$$

IDZ002-004-006-007-026-190800-
NORTHERN IDAHO


CITY           SKY/WX    TMP DP  RH WIND       PRES   REMARKS
LEWISTON       PTCLDY    49  44  83 CALM      29.74F
LOWELL           N/A     43  43 100 CALM      29.83F
COEUR D`ALENE  CLOUDY    55  43  63 S9        29.69S
MULLAN PASS    CLOUDY    46  25  43 SW14G36   29.80F
$$



USA.gov is the U.S. government's official web portal to all federal, state and local government web resources and services.